Probability
0 0 0 0 0 0 0 0 0 1 2 3 3 4 4 4 5 5 4 4 5 5 4 3 3 4 4 4 5 7 7 6 5 3 1 2 5 6 8 9 8 6 3 2
0 0 0 0 0 1 1 1 1 2 3 4 4 5 6 7 7 6 5 5 6 5 4 2 3 4 4 4 5 7 7 5 4 3 2 4 6 7 7 7 7 5 4 4
0 0 0 1 1 2 4 4 5 6 8 9 8 7 8 10 11 9 5 5 5 5 3 2 2 3 4 4 4 5 5 4 4 4 5 7 8 7 6 7 6 6 6 7
0 0 0 1 2 4 9 11 11 14 19 20 17 13 10 10 12 9 4 2 2 2 1 2 2 3 4 4 3 3 4 4 4 5 6 7 7 6 6 8 8 8 8 9
0 0 0 1 2 7 14 19 19 21 27 28 24 18 10 7 8 6 2 0 0 0 0 1 2 2 3 3 1 1 2 2 3 4 5 5 5 4 5 6 7 6 6 6
0 0 0 1 3 6 14 21 22 24 26 24 20 14 7 3 3 2 1 0 0 0 0 0 1 1 1 1 1 0 0 0 1 2 3 3 2 2 2 2 3 2 2 2
0 0 0 1 3 5 9 15 18 21 21 17 11 6 3 1 1 1 0 0 0 0 0 0 0 0 0 0 0 0 0 0 0 0 1 1 1 1 1 0 0 0 0 0
0 0 0 2 4 5 7 10 14 16 16 12 7 3 2 1 0 0 0 0 0 0 0 0 0 0 0 0 0 0 0 0 0 0 0 0 0 0 0 0 0 0 0 0
1 1 2 3 5 6 6 8 11 12 10 7 4 3 2 1 0 0 0 0 0 0 0 0 0 0 0 0 0 0 0 0 0 0 0 0 0 0 0 0 0 0 0 0
2 2 3 4 6 6 6 6 7 7 5 2 2 2 2 1 0 0 0 0 0 0 0 0 0 0 0 0 0 0 0 0 0 0 0 0 0 0 0 0 0 0 0 0
1 1 1 2 4 6 6 5 4 2 1 0 0 1 1 0 0 0 0 0 0 0 0 0 0 0 0 0 0 0 0 0 0 0 0 0 0 0 0 0 0 0 0 0
0 0 0 0 1 3 4 3 2 1 0 0 0 0 0 0 0 0 0 0 0 0 0 0 0 0 0 0 0 0 0 0 0 0 0 0 0 0 0 0 0 0 0 0
0 0 0 1 1 1 1 1 1 0 0 0 0 0 0 0 0 0 0 0 0 0 0 0 0 0 0 0 0 0 0 0 0 0 0 0 0 0 0 0 0 0 0 0
0 0 0 0 0 0 0 0 0 0 0 0 0 0 0 0 0 0 0 0 0 0 0 0 0 0 0 0 0 0 0 0 0 0 0 0 0 0 0 0 0 0 0 0
0 0 0 0 0 0 1 0 0 0 0 0 0 0 0 0 0 0 0 0 0 0 0 0 0 0 0 0 0 0 0 0 0 0 0 0 0 0 0 0 0 0 0 0
0 0 0 0 0 0 0 0 0 0 0 0 0 0 0 0 0 0 0 0 0 0 0 0 0 0 0 0 0 0 0 0 0 0 0 0 0 0 0 0 0 0 0 0
0 0 0 0 0 0 0 0 0 0 0 0 0 0 0 0 0 0 0 0 0 0 0 0 0 0 0 0 0 0 0 0 0 0 0 0 0 0 0 0 0 0 0 0
0 0 0 0 0 0 0 0 0 0 0 0 0 0 0 0 0 0 0 0 0 0 0 0 0 0 0 0 0 0 0 0 0 0 0 0 0 0 0 0 0 0 0 0
0 0 0 0 0 0 0 0 0 0 0 0 0 0 0 0 0 0 0 0 0 0 0 0 0 0 0 0 0 0 0 0 0 0 0 0 0 0 0 0 0 0 0 0
0 0 0 0 0 0 0 0 0 0 0 0 0 0 0 0 0 0 0 0 0 0 0 0 0 0 0 0 0 0 0 0 0 0 0 0 0 0 0 0 0 0 0 0
0 0 0 0 0 0 0 0 0 0 0 0 0 0 0 0 0 0 0 0 0 0 0 0 0 0 0 0 0 0 0 0 0 0 0 0 0 0 0 0 0 0 0 0
0 0 0 0 0 0 0 0 0 0 0 0 0 0 0 0 0 0 0 0 0 0 0 0 0 0 0 0 0 0 0 0 0 0 0 0 0 0 0 0 0 0 0 0
0 0 0 0 0 0 0 0 0 0 0 0 0 0 0 0 0 0 0 0 0 0 0 0 0 0 0 0 0 0 0 0 0 0 0 0 0 0 0 0 0 0 0 0
0 0 0 0 0 0 0 0 0 0 0 0 0 0 0 0 0 0 0 0 0 0 0 0 0 0 0 0 0 0 0 0 0 0 0 0 0 0 0 0 0 0 0 0
0 0 0 0 0 0 0 0 0 0 0 0 0 0 0 0 0 0 0 0 0 0 0 0 0 0 0 0 0 0 0 0 0 0 0 0 0 0 0 0 0 0 0 0
0 0 0 0 0 0 0 0 0 0 0 0 0 0 0 0 0 0 0 0 0 0 0 0 0 0 0 0 0 0 0 0 0 0 0 0 0 0 0 0 0 0 0 0
0 0 0 0 0 0 0 0 0 0 0 0 0 0 0 0 0 0 0 0 0 0 0 0 0 0 0 0 0 0 0 0 0 0 0 0 0 0 0 0 0 0 0 0
Wind_Speed
5 6 5 6 8 8 7 9 8 7 9 11 11 10 8 6 7 8 7 7 7 7 6 7 7 7 7 6 6 7 7 7 6 6 5 5 4 4 4 4 5 5 5 5
5 3 2 3 6 7 6 6 6 6 5 5 5 5 6 6 8 9 7 6 6 6 6 6 6 6 6 5 5 6 6 5 4 4 3 2 2 2 2 2 2 2 4 4
4 4 2 4 5 5 4 4 8 8 8 7 6 7 8 9 9 9 8 7 6 6 5 5 5 6 6 6 6 7 6 5 4 4 4 3 2 2 1 0 0 1 1 2
2 2 5 7 2 1 2 0 3 7 8 11 10 8 7 7 10 10 9 8 7 6 7 6 7 7 8 9 9 9 8 6 5 5 4 3 4 2 1 1 1 1 1 0
3 3 5 4 2 2 2 1 2 12 14 14 14 13 9 6 9 10 10 9 8 7 8 9 9 9 11 11 10 10 9 7 5 5 5 5 4 3 2 2 2 2 2 2
4 3 6 4 4 2 5 1 1 11 16 13 8 6 5 6 11 12 11 10 9 9 11 11 9 10 13 11 10 9 7 6 6 6 6 5 4 4 3 3 3 4 4 4
4 4 5 3 5 2 4 6 5 8 12 10 4 6 11 12 13 13 12 11 11 12 11 9 8 11 12 11 9 6 6 6 6 6 5 5 4 4 4 4 5 5 5 4
3 4 6 2 2 2 4 1 4 7 9 10 12 15 14 14 14 13 13 11 11 11 10 8 8 11 12 9 6 6 6 7 6 5 5 5 5 5 4 5 5 4 4 4
4 5 3 2 2 2 2 3 4 6 10 16 17 16 14 13 12 12 12 10 9 11 10 8 7 8 10 6 5 6 7 6 5 5 4 4 4 4 3 3 3 2 2 2
1 3 2 1 0 1 2 3 5 10 15 16 16 16 15 13 12 11 10 9 8 10 10 7 6 7 7 6 6 7 6 5 4 4 4 4 3 3 2 2 2 2 1 1
1 2 1 2 2 5 7 8 10 11 13 14 17 15 14 12 11 10 9 7 7 8 8 7 6 6 6 6 6 7 6 5 4 4 4 3 3 2 2 1 2 2 1 1
3 2 2 2 4 9 11 11 13 15 13 12 14 15 13 11 9 9 9 8 8 8 8 7 7 6 5 5 6 6 5 4 3 3 3 3 3 4 6 5 6 6 4 3
2 4 5 6 9 10 12 14 15 15 15 14 12 13 13 11 8 9 9 9 8 8 7 6 6 5 4 5 6 6 4 3 3 3 3 3 3 3 3 4 7 7 6 5
4 8 8 8 10 12 15 17 17 15 14 13 12 13 12 11 10 9 8 7 8 8 7 6 7 5 4 5 6 5 4 4 3 2 3 3 3 3 2 2 3 3 4 6
8 10 11 12 14 14 15 16 17 15 13 12 11 12 11 11 10 8 7 7 8 8 7 7 7 4 4 5 6 5 4 3 3 3 3 3 3 3 2 3 2 2 3 4
12 13 14 16 15 14 15 15 15 13 12 11 10 10 10 10 9 7 7 8 8 7 6 6 5 3 4 5 5 4 3 5 5 3 3 3 3 3 3 3 3 3 3 3
13 11 13 14 13 13 12 11 12 11 11 11 10 10 9 9 8 7 7 7 7 6 5 5 4 3 4 4 4 3 3 4 6 4 3 3 3 3 3 3 3 3 3 4
11 10 11 12 13 12 11 10 11 10 9 9 10 9 9 8 7 7 6 6 7 6 4 3 3 4 4 4 3 2 2 3 3 3 2 2 3 3 3 3 3 3 3 4
14 14 13 13 12 11 10 10 9 8 8 8 9 8 7 6 6 6 6 6 6 5 2 3 6 5 4 4 4 3 3 3 3 3 2 3 3 3 2 3 3 3 3 3
13 13 13 12 11 10 10 9 8 7 6 7 8 7 6 5 6 6 6 5 2 2 2 4 5 4 3 4 5 3 4 4 3 3 3 3 3 3 3 3 3 3 4 4
11 11 11 10 9 8 8 8 8 7 6 6 7 7 6 5 5 6 6 4 1 3 5 6 4 3 3 4 6 4 4 4 3 3 3 3 3 3 3 3 3 3 4 4
9 9 9 8 8 6 5 5 6 6 6 6 6 7 7 7 6 5 4 3 3 6 5 3 2 4 5 5 4 4 4 4 3 3 3 3 3 3 3 3 3 3 4 4
7 7 7 6 6 5 5 5 5 5 5 5 6 6 6 5 4 5 3 2 3 6 5 3 4 7 8 5 4 4 4 4 3 3 3 2 2 2 3 3 3 3 4 4
6 6 5 4 5 6 4 3 4 4 5 5 5 6 7 6 4 2 4 6 7 7 4 4 6 7 7 4 3 3 3 3 3 3 2 2 3 3 3 3 3 4 4 5
4 4 4 5 4 3 3 4 5 5 6 5 5 4 4 4 5 4 4 5 6 6 3 3 6 7 4 3 3 3 2 2 3 2 3 3 3 3 3 3 3 4 4 4
3 3 3 3 3 3 3 4 4 3 4 4 4 4 4 4 6 5 4 4 5 4 3 2 3 4 3 3 3 3 2 3 3 3 3 3 3 3 3 3 5 4 4 4
4 4 3 3 3 3 4 4 4 3 3 4 4 3 4 4 4 4 4 3 3 2 2 2 2 2 3 3 3 3 3 3 3 3 3 3 3 3 3 4 3 3 3 4
Wind_Direction
250 226 201 206 203 188 175 177 181 206 188 201 191 188 184 171 154 139 144 150 157 160 161 159 161 165 169 173 173 170 164 174 192 200 204 208 208 213 214 212 213 208 207 214
311 274 251 240 217 198 195 184 187 172 207 205 162 146 147 144 138 131 132 139 139 139 144 150 154 156 155 156 160 149 153 167 174 172 175 175 177 176 174 204 220 210 213 214
291 297 355 263 235 208 197 189 168 182 197 147 133 142 149 140 128 126 125 118 114 117 128 136 136 132 131 131 116 107 108 107 115 124 119 119 111 92 99 203 173 201 219 202
245 357 235 242 281 115 127 96 160 141 141 132 122 103 85 108 119 116 112 103 94 95 98 98 100 98 97 94 94 94 92 90 94 105 109 95 82 73 40 36 83 96 63 86
162 215 264 289 333 64 106 23 125 129 124 116 113 89 66 78 105 108 105 100 92 89 90 89 89 94 92 86 85 84 81 78 76 86 88 79 74 60 43 45 34 35 39 54
159 186 225 249 308 312 97 93 229 135 136 136 123 119 145 121 107 101 96 94 91 85 83 81 80 88 87 83 80 78 77 73 69 70 77 76 73 67 48 52 43 46 50 52
176 209 244 278 313 348 149 204 198 153 144 142 148 147 137 123 108 104 100 96 93 89 83 79 82 88 86 84 82 85 84 78 69 69 75 76 65 60 61 61 57 57 62 53
166 198 236 296 17 165 199 182 157 148 137 122 114 115 119 117 113 110 105 99 97 94 87 78 79 87 86 82 81 79 76 70 63 58 63 71 68 59 54 58 60 58 63 54
192 207 247 257 205 216 173 131 136 139 128 126 126 127 123 118 115 111 108 103 98 98 93 81 77 88 92 86 80 74 70 65 57 51 51 58 68 65 55 55 65 59 72 74
228 256 264 305 47 103 121 122 133 130 128 131 129 127 124 121 117 113 111 108 107 103 99 91 82 83 90 88 81 75 67 57 50 49 44 44 53 67 75 70 73 66 67 74
229 266 339 33 111 114 99 100 105 116 123 129 127 126 125 123 121 120 117 111 109 108 107 105 95 85 82 82 81 73 62 53 47 48 50 46 42 51 76 85 132 127 126 127
210 225 134 117 116 118 116 118 122 119 112 116 123 126 123 120 119 120 118 116 111 108 107 104 98 91 81 79 80 76 60 45 41 39 39 42 46 39 42 61 65 81 99 104
162 113 111 107 102 109 111 115 116 115 117 116 113 118 117 115 115 115 115 117 119 118 114 107 98 88 76 74 74 71 66 52 41 39 40 38 44 61 41 25 42 54 56 51
129 112 95 95 103 103 105 106 105 104 106 110 112 112 111 109 109 111 115 121 119 113 108 103 93 80 69 70 70 63 55 45 46 44 45 49 53 57 65 58 24 7 14 17
94 100 107 104 102 104 107 109 108 108 107 106 108 110 112 111 111 111 111 109 105 102 102 100 94 82 69 69 64 55 48 38 43 47 51 58 58 52 46 44 39 11 356 355
98 96 99 101 103 106 109 111 112 113 113 111 109 110 110 110 109 105 103 108 109 109 109 105 101 91 70 65 60 46 33 40 56 58 53 49 43 41 34 31 26 17 6 346
108 107 110 109 106 106 107 109 112 113 112 112 115 114 111 108 105 102 99 100 103 105 105 107 108 91 70 65 61 45 35 38 52 60 59 53 48 44 41 39 26 7 349 348
97 105 111 114 114 109 105 103 106 108 112 115 115 111 110 113 116 117 115 105 95 84 80 96 100 83 63 50 48 43 56 59 58 69 69 58 48 43 41 28 9 358 340 344
95 97 97 98 102 104 103 103 103 105 110 113 113 115 116 117 120 119 111 107 110 105 75 72 86 80 64 40 51 56 68 69 65 61 61 55 51 37 25 11 357 350 347 349
91 92 94 93 95 101 103 105 105 104 109 113 113 112 113 117 120 116 107 100 110 139 129 92 77 65 46 35 55 62 68 72 70 58 47 44 38 23 13 7 1 355 352 349
93 94 96 98 97 98 106 112 112 112 112 115 118 122 123 119 117 114 110 102 71 103 97 85 75 60 46 51 57 66 71 68 61 53 45 37 28 18 9 2 359 356 352 345
89 91 92 96 98 96 100 106 112 114 112 110 114 115 113 111 107 99 96 122 128 115 101 83 74 72 75 69 67 75 74 68 58 49 42 30 24 13 4 360 356 353 352 349
92 92 91 93 100 99 91 95 104 111 116 123 129 129 129 133 134 129 122 126 118 110 102 94 89 83 79 72 73 78 74 65 54 47 39 28 20 12 7 4 0 359 356 353
94 95 96 94 92 93 92 92 95 101 106 109 121 131 130 119 97 97 125 124 119 110 98 99 93 85 79 77 78 74 67 59 50 41 33 26 21 18 15 13 9 4 1 359
95 89 85 88 92 103 108 96 87 86 89 87 88 98 111 123 128 130 123 125 126 116 108 97 93 85 80 83 85 79 66 57 56 51 42 33 23 19 17 17 15 11 8 3
94 95 95 101 114 115 108 101 99 99 102 100 90 88 94 102 114 119 120 127 130 128 124 102 94 89 90 91 90 89 74 52 50 51 45 36 29 31 29 27 26 19 7 359
71 71 72 67 65 82 94 101 108 110 115 117 111 106 109 110 113 119 121 122 122 122 117 109 104 103 102 99 94 86 77 65 59 56 48 42 37 35 32 32 23 10 359 354